x

9099004 - Point Iroquois, Mi (ptim4) Weather Station

2:30pm - Fri 20th Jan 2017 All times are CST. -6 hours from GMT.

  • Wind
    13mph, 14mph gusts
  • Air Temp 33°f
  • Sea Pressure 1005.4mb
  • 9099004 - Point Iroquois, Mi
  • 9099004 - Point Iroquois, Mi

More Historic Weather Station data

Upgrade to MSW Pro to gain access to the past 30 days of data for over 8000 Wavebouys and Weather Stations around the globe.

Join Pro

Comparision Forecast

View Surf forecast
   
Fri 01/20 2:30pm 13 14 mph 1005.4mb 33f
2:24pm 13 14 mph 1005.4mb 33f
2:18pm 13 14 mph 1005.3mb -
2:12pm 11 13 mph 1005.3mb 33f
2:06pm 11 13 mph 1005.2mb 33f
2:00pm 11 13 mph 1005.3mb 33f
1:54pm 10 11 mph 1005.4mb 33f
1:48pm 10 13 mph 1005.4mb 33f
1:42pm 13 14 mph 1005.4mb 33f
1:36pm 11 14 mph 1005.4mb 33f
1:30pm 11 13 mph 1005.3mb 33f
1:24pm 11 13 mph 1005.4mb 33f
1:18pm 10 13 mph 1005.4mb 33f
1:12pm 9 11 mph 1005.5mb 33f
1:06pm 10 11 mph 1005.5mb 33f
1:00pm 11 13 mph 1005.6mb 33f
12:54pm 10 13 mph 1005.7mb 33f
12:48pm 9 13 mph 1005.7mb 33f
12:42pm 11 13 mph 1005.7mb 33f
12:36pm 10 13 mph 1005.8mb 33f
12:30pm 10 11 mph 1005.9mb 33f
12:24pm 11
mph
1005.9mb 33f
12:18pm 9 11 mph 1006mb 33f
12:12pm 10 11 mph 1006.1mb 33f
12:06pm 9 11 mph 1006.2mb 34f
12:00pm 8 11 mph 1006.3mb 34f
11:54am 9 11 mph 1006.4mb 34f
11:48am 8 13 mph 1006.5mb 33f
11:42am 9 13 mph 1006.7mb 34f
11:36am 8 13 mph 1006.9mb 33f
11:30am 9 13 mph 1007.1mb 33f
11:24am 9 13 mph 1007.3mb 33f
11:18am 10 14 mph 1007.3mb 33f
11:12am 9 13 mph 1007.4mb 33f
11:06am 8 13 mph 1007.5mb 33f
11:00am 10 13 mph 1007.6mb 33f
10:54am 9 11 mph 1007.7mb 33f
10:48am 9 11 mph 1007.8mb -
10:42am 10 13 mph 1007.8mb 33f
10:36am 11 13 mph 1007.9mb 33f
10:30am 10 14 mph 1008mb 33f
10:24am 11 15 mph 1008mb 33f
10:18am 13 16 mph 1008.1mb 33f
10:12am 11 17 mph 1008.2mb 33f
10:06am 14 16 mph 1008.2mb 33f
10:00am 13 15 mph 1008.2mb 33f
9:54am 9 16 mph 1008.2mb 33f
9:48am 13 16 mph 1008.3mb -
9:42am 13 16 mph 1008.3mb 33f
9:36am 10 15 mph 1008.4mb 33f
9:30am 11 17 mph 1008.4mb 33f
9:24am 13 20 mph 1008.4mb 33f
9:18am 15 22 mph 1008.4mb 32f
9:12am 14 17 mph 1008.4mb 32f
9:06am 14 17 mph 1008.4mb 32f
9:00am 10 16 mph 1008.4mb 33f
8:54am 11 16 mph 1008.4mb 33f
8:48am 9 15 mph 1008.4mb 33f
8:42am 11 16 mph 1008.4mb 33f
8:36am 13 16 mph 1008.4mb 33f
8:30am 13 16 mph 1008.4mb 33f
8:24am 14 17 mph 1008.3mb 33f
8:18am 11 17 mph 1008.3mb 33f
8:12am 13 18 mph 1008.2mb 33f
8:06am 13 20 mph 1008.2mb 33f
8:00am 15 21 mph 1008.1mb 33f
7:54am 15 21 mph 1008.1mb 33f
7:48am 14 17 mph 1008.1mb 33f
7:42am 13 17 mph 1008mb 33f
7:36am 13 17 mph 1008mb 33f
7:30am 13 18 mph 1007.9mb 33f
7:24am 13 18 mph 1007.8mb 33f
7:18am 14 17 mph 1007.7mb 33f
7:12am 14 18 mph 1007.6mb 33f
7:06am 14 18 mph 1007.6mb 33f
7:00am 14 20 mph 1007.7mb 33f
6:54am 14 16 mph 1007.7mb 33f
6:48am 13 17 mph 1007.6mb 33f
6:42am 14 16 mph 1007.6mb 33f
6:36am 14 16 mph 1007.6mb 33f
6:30am 14 16 mph 1007.5mb 32f
6:24am 15 17 mph 1007.6mb 32f
6:18am 14 16 mph 1007.6mb -
6:12am 15 16 mph 1007.6mb 33f
6:06am 13 15 mph 1007.6mb 33f
6:00am 14 15 mph 1007.6mb 32f
5:54am 14 16 mph 1007.6mb 33f
5:48am 14
mph
1007.6mb 32f
5:42am 11 14 mph 1007.8mb 32f
5:36am 13 14 mph 1007.7mb 32f
5:30am 11 14 mph 1007.7mb 32f
5:24am 10 14 mph 1007.7mb 32f
5:18am 11 16 mph 1007.7mb 32f
5:12am 15 16 mph 1007.8mb 32f
5:06am 15 17 mph 1007.8mb 32f
5:00am 11 15 mph 1007.9mb 32f
4:54am 11 15 mph 1008mb 32f
4:48am 10 14 mph 1008.1mb 32f
4:42am 13 15 mph 1008.1mb 32f
4:36am 10 15 mph 1008.1mb 32f
4:30am 11 14 mph 1008.2mb 32f
4:24am 11 15 mph 1008.2mb 32f
4:18am 10 15 mph 1008.3mb 32f
4:12am 10 14 mph 1008.4mb 32f
4:06am 10 14 mph 1008.4mb 32f
4:00am 11 14 mph 1008.5mb 32f
3:54am 10 15 mph 1008.6mb 32f
3:48am 13 15 mph 1008.6mb 32f
3:42am 13 15 mph 1008.8mb 32f
3:36am 11 15 mph 1008.9mb 32f
3:30am 14 16 mph 1008.9mb 32f
3:24am 13 16 mph 1009mb 32f
3:18am 15 17 mph 1008.9mb 32f
3:12am 16 18 mph 1009mb 32f
3:06am 15 17 mph 1009mb 32f
3:00am 16 18 mph 1009.1mb 33f
2:54am 16 20 mph 1009.1mb 32f
2:48am 16 17 mph 1009.1mb 33f
2:42am 16 17 mph 1009.1mb 33f
2:36am 16 17 mph 1009.2mb 32f
2:30am 14 16 mph 1009.3mb 32f
2:24am 13 15 mph 1009.3mb 32f
2:18am 10 15 mph 1009.4mb 32f
2:12am 11 15 mph 1009.5mb 32f
2:06am 11 15 mph 1009.6mb 32f
2:00am 11 14 mph 1009.7mb 33f
1:54am 10 14 mph 1009.8mb 33f
1:48am 9 13 mph 1009.8mb -
1:42am 10 13 mph 1009.8mb 33f
1:36am 10 15 mph 1009.7mb 33f
1:30am 9 15 mph 1009.7mb 33f
1:24am 9 14 mph 1009.8mb 33f
1:18am 9 14 mph 1009.9mb 33f
1:12am 10 15 mph 1010mb 33f
1:06am 13 15 mph 1009.9mb 33f
1:00am 14 17 mph 1009.8mb 33f
12:54am 14 15 mph 1009.8mb 33f
12:48am 13 14 mph 1009.8mb 33f
12:42am 10 14 mph 1010mb 33f
12:36am 11 14 mph 1010mb 32f
12:30am 10 13 mph 1010.1mb 33f
12:24am 9 11 mph 1010.2mb 33f
12:18am 7 11 mph 1010.3mb -
12:12am 8 10 mph 1010.2mb 33f
12:06am 9 11 mph 1010.2mb 33f
12:00am 9 13 mph 1010.2mb 33f
Thu 01/19 11:54pm 9 11 mph 1010.2mb 33f
11:48pm 9 11 mph 1010.4mb -
11:42pm 8 11 mph 1010.5mb -
11:36pm 7 10 mph 1010.6mb -
11:30pm 7 9 mph 1010.8mb 33f
11:24pm 7 9 mph 1010.8mb 33f
11:18pm 6 10 mph 1011mb 33f
11:12pm 6 9 mph 1011.1mb 33f
11:06pm 7 10 mph 1011.1mb 33f
11:00pm 8 11 mph 1011.2mb 33f
10:54pm 6 10 mph 1011.1mb 33f
10:48pm 8 10 mph 1011.3mb 33f
10:42pm 8 10 mph 1011.2mb 33f
10:36pm 7 10 mph 1011.3mb 33f
10:30pm 8 11 mph 1011.3mb 33f
10:24pm 8 13 mph 1011.2mb 33f
10:18pm 8 14 mph 1011.2mb 33f
10:12pm 9 13 mph 1011.1mb 33f
10:06pm 7 13 mph 1011.3mb 33f
10:00pm 9 13 mph 1011.2mb 33f
9:54pm 8 13 mph 1011.4mb 33f
9:48pm 9 13 mph 1011.4mb 33f
9:42pm 9 11 mph 1011.4mb 33f
9:36pm 8 13 mph 1011.5mb 33f
9:30pm 7 11 mph 1011.5mb 33f
9:24pm 8 11 mph 1011.5mb 33f
9:18pm 9 13 mph 1011.5mb 33f
9:12pm 10 13 mph 1011.5mb 33f
9:06pm 10 13 mph 1011.6mb 33f
9:00pm 8 10 mph 1011.7mb 33f
8:54pm 7 10 mph 1011.9mb 33f
8:48pm 6 9 mph 1011.9mb -
8:42pm 5 8 mph 1012mb 33f
8:36pm 6 10 mph 1012.2mb 33f
8:30pm 6 7 mph 1012.2mb 33f
8:24pm 5 8 mph 1012.3mb 33f
8:18pm 6 9 mph 1012.5mb 33f
8:12pm 5 7 mph 1012.4mb 33f
8:06pm 5 8 mph 1012.3mb 33f
8:00pm 6 8 mph 1012.3mb 33f
7:54pm 8 11 mph 1012.2mb 33f
7:48pm 9 11 mph 1012.2mb 33f
7:42pm 8 13 mph 1012.1mb 33f
7:36pm 10 11 mph 1012.2mb 33f
7:30pm 7 10 mph 1012.3mb 33f
7:24pm 6 8 mph 1012.4mb 33f
7:18pm 7 11 mph 1012.4mb 33f
7:12pm 6 10 mph 1012.4mb 33f
7:06pm 6 11 mph 1012.6mb 33f
7:00pm 8 11 mph 1012.4mb 33f
6:54pm 8 10 mph 1012.4mb 33f
6:48pm 8 13 mph 1012.3mb 33f
6:42pm 6 11 mph 1012.5mb 34f
6:36pm 9 14 mph 1012.3mb 34f
6:30pm 9 13 mph 1012.2mb 34f
6:24pm 8 11 mph 1012.6mb 34f
6:18pm 8 14 mph 1012.6mb -
6:12pm 9 11 mph 1012.6mb 34f
6:06pm 7 9 mph 1012.6mb 34f
6:00pm 7 11 mph 1012.7mb 34f
5:54pm 7 10 mph 1012.6mb 34f
5:48pm 9 11 mph 1012.4mb 34f
5:42pm 8 11 mph 1012.3mb 34f
5:36pm 8 14 mph 1012.5mb 34f
5:30pm 7 11 mph 1012.7mb 34f
5:24pm 8 13 mph 1012.7mb 34f
5:18pm 8 11 mph 1012.6mb 34f
5:12pm 8 10 mph 1012.6mb 34f
5:06pm 6 10 mph 1012.8mb 34f
5:00pm 6 11 mph 1012.9mb 34f
4:54pm 7 11 mph 1012.9mb 34f
4:48pm 7 10 mph 1012.8mb -
4:42pm 6 10 mph 1012.8mb 34f
4:36pm 6 9 mph 1012.7mb 34f
4:30pm 5 8 mph 1012.7mb 34f
4:24pm 6 9 mph 1012.6mb 34f
4:18pm 7 9 mph 1012.4mb 34f
4:12pm 6 8 mph 1012.3mb 35f
4:06pm 5 10 mph 1012.6mb 35f
4:00pm 6 10 mph 1012.1mb 35f
3:54pm 6 10 mph 1012.4mb 35f
3:48pm 7 13 mph 1012.2mb 35f
3:42pm 6 9 mph 1012.2mb 35f
3:36pm 7 11 mph 1012.2mb 35f
3:30pm 5 9 mph 1012.1mb 35f
3:24pm 6 8 mph 1011.9mb 35f
3:18pm 6 10 mph 1011.8mb 35f
3:12pm 7 9 mph 1011.8mb 35f
3:06pm 7 9 mph 1011.6mb 35f
3:00pm 7 10 mph 1011.5mb 35f
2:54pm 7 10 mph 1011.6mb 35f
2:48pm 7 10 mph 1011.6mb 35f
2:42pm 6 9 mph 1011.7mb 35f
2:36pm 7 9 mph 1011.9mb 35f
2:30pm 6 8 mph 1012.1mb 35f
2:24pm 7 11 mph 1012.1mb 35f
2:18pm 5 9 mph 1012.1mb 35f
2:12pm 6 8 mph 1012.1mb 35f
2:06pm 5 7 mph 1012.1mb 35f
2:00pm 7 9 mph 1012.1mb 36f
1:54pm 5 9 mph 1012.1mb 36f
1:48pm 5 8 mph 1012.1mb 36f
1:42pm 5 8 mph 1012.1mb 36f
1:36pm 6 7 mph 1012.1mb 36f
1:30pm 6 9 mph 1012.1mb 36f
1:24pm 6 10 mph 1012.1mb 36f
1:18pm 5 11 mph 1012.1mb 36f
1:12pm 6 11 mph 1012.1mb 36f
1:06pm 3 10 mph 1012.1mb 36f
1:00pm 5 8 mph 1012.3mb 36f
12:54pm 6 9 mph 1012.2mb 36f
12:48pm 6 14 mph 1012.2mb 36f
12:42pm 6 9 mph 1012.3mb 36f
12:36pm 3 10 mph 1012.3mb 36f
12:30pm 7 13 mph 1012.3mb 36f
12:24pm 6 10 mph 1012.2mb 36f
12:18pm 7 11 mph - 36f
12:12pm 3 14 mph - 37f
12:06pm 7 14 mph - 37f
12:00pm 6 13 mph 1012.4mb 37f
11:54am 7 14 mph 1012.5mb 37f
11:48am 7 11 mph 1012.5mb -
11:42am 5 10 mph 1012.6mb 37f
11:36am 7 11 mph 1012.7mb 37f
11:30am 8 15 mph 1012.9mb 37f
11:24am 7 11 mph 1013mb 37f
11:18am 3 10 mph 1013mb 37f
11:12am 6 10 mph 1013.1mb 37f
11:06am 8 11 mph 1013.3mb 37f
11:00am 6 9 mph 1013.4mb 37f
10:54am 5 10 mph 1013.5mb 37f
10:48am 6 9 mph 1013.5mb 37f
10:42am 3 10 mph 1013.6mb 37f
10:36am 6 8 mph 1013.6mb 37f
10:30am 3 7 mph 1013.6mb 37f
10:24am 5 9 mph 1013.7mb 36f
10:18am 5 11 mph 1013.7mb 37f
10:12am 6 10 mph 1013.8mb 36f
10:06am 6 11 mph 1013.9mb 36f
10:00am 7 10 mph 1013.9mb 36f
9:54am 5 11 mph 1014mb 36f
9:48am 3 8 mph 1014mb 36f
9:42am 5 11 mph 1014.1mb 36f
9:36am 3 9 mph 1014mb 36f
9:30am 7 11 mph 1014mb 36f
9:24am 5 9 mph 1014.1mb 36f
9:18am 7 11 mph 1014mb -
9:12am 2 10 mph 1014mb 36f
9:06am 6 10 mph 1013.9mb 36f
9:00am 5 8 mph 1013.9mb 36f
8:54am 5 8 mph 1013.9mb 36f
8:48am 2 6 mph - -
8:42am 3 6 mph 1013.9mb 35f
8:36am 5 8 mph 1014mb 35f
8:30am 5 8 mph 1014mb 35f
8:24am 2 7 mph 1014mb 35f
8:18am 3 6 mph 1014mb -
8:12am 7 10 mph 1014mb 35f
8:06am 5 8 mph 1014mb 35f
8:00am 2 8 mph 1014mb 35f
7:54am 3 6 mph 1014mb 35f
7:48am 5 7 mph 1013.9mb 35f
7:42am 6 9 mph 1013.9mb 35f
7:36am 5 9 mph 1013.9mb 35f
7:30am 3 8 mph 1013.8mb 35f
7:24am 5 13 mph 1013.8mb 35f
7:18am 3 11 mph 1013.8mb 35f
7:12am 6 14 mph 1013.7mb 35f
7:06am 5 9 mph 1013.6mb 35f
7:00am 5 9 mph 1013.7mb 35f
6:54am 3 8 mph 1013.7mb 34f
6:48am 5 7 mph 1013.6mb 34f
6:42am 3 7 mph 1013.6mb 34f
6:36am 5 7 mph 1013.6mb 34f
6:30am 6 10 mph 1013.6mb 34f
6:24am 3 6 mph 1013.6mb 34f
6:18am 6 8 mph 1013.6mb 34f
6:12am 3 5 mph 1013.7mb 34f
6:06am 3 6 mph 1013.6mb 34f
6:00am 5 6 mph 1013.6mb 34f
5:54am 2 5 mph 1013.5mb 34f
5:48am 2 5 mph 1013.3mb 34f
5:42am 3 6 mph 1013.3mb 34f
5:36am 3 5 mph 1013.3mb 34f
5:30am  -  5 mph 1013.3mb 34f
5:24am 1 3 mph 1013.3mb 34f
5:18am 2 5 mph 1013.3mb -
5:12am 3 5 mph 1013.3mb 34f
5:06am 2 3 mph 1013.2mb 34f
5:00am 2 3 mph 1013.1mb 34f
4:54am  -  3 mph 1013.1mb 34f
4:48am 3
mph
1013mb 34f
4:42am 2 5 mph 1012.8mb 34f
4:36am 1 2 mph 1012.9mb 34f
4:30am 1 7 mph 1012.9mb 34f
4:24am 2 7 mph 1013mb 34f
4:18am 3 6 mph 1013mb -
4:12am 3 8 mph 1013mb 34f
4:06am 1 3 mph 1013mb 33f
4:00am 3 6 mph 1012.8mb 34f
3:54am 2 5 mph 1012.7mb 34f
3:48am 2 7 mph 1012.6mb 33f
3:42am 2 3 mph 1012.6mb 33f
3:36am 2 5 mph 1012.6mb 33f
3:30am 3 6 mph 1012.7mb 33f
3:24am 2 5 mph 1012.7mb 33f
3:18am  -  3 mph 1012.7mb 33f
3:12am 2 5 mph 1012.7mb 33f
3:06am 1 3 mph 1012.8mb 33f
3:00am  -  2 mph 1012.7mb 32f
2:54am 2
mph
1012.6mb 33f
2:48am 2 3 mph 1012.7mb -
2:42am 2 5 mph 1012.7mb 33f
2:36am 2 6 mph 1012.6mb 33f
2:30am 3 6 mph 1012.5mb 33f
2:24am 3 6 mph 1012.5mb 33f
2:18am 2 5 mph 1012.4mb 32f
2:12am 2 5 mph 1012.4mb 33f
2:06am 3
mph
1012.3mb 33f
2:00am 2 3 mph 1012.4mb 32f
1:54am 3
mph
1012.5mb 33f
1:48am 2 3 mph 1012.4mb 33f
1:42am 2 3 mph 1012.3mb 33f
1:36am 2 3 mph 1012.2mb 33f
1:30am 2 3 mph 1012.2mb 33f
1:24am 2
mph
1012.2mb 33f
1:18am 2 3 mph 1012.2mb 33f
1:12am 3 5 mph 1012.2mb 33f
1:06am 2
mph
1012.2mb 33f
1:00am 1 2 mph 1012.3mb 33f
12:54am 2 3 mph 1012.3mb 33f
12:48am 2 3 mph 1012.3mb 33f
12:42am 3 5 mph 1012.2mb 33f
12:36am 3 5 mph 1012.2mb 33f
12:30am 3 6 mph 1012.3mb 33f
12:24am 3 5 mph 1012.2mb 33f
12:18am 2
mph
1012.2mb 32f
12:12am  -  2 mph 1012.2mb 32f
12:06am  -  2 mph 1012.2mb 33f
12:00am 1 2 mph 1012.2mb 33f
Wed 01/18 11:54pm 1 2 mph 1012.2mb 33f
11:48pm 1 5 mph 1012.2mb -
11:42pm 2 3 mph 1012.2mb -
11:36pm  -  3 mph 1012.2mb -
11:30pm 2 6 mph 1012.2mb 33f
11:24pm 3 5 mph 1012.2mb 34f
11:18pm 1 3 mph 1012.1mb -
11:12pm 3 6 mph 1012.1mb 34f
11:06pm 3 5 mph 1012.2mb 34f
11:00pm 2 6 mph 1012.2mb 34f
10:54pm 3 5 mph 1012.2mb 34f
10:48pm 2 5 mph 1012.1mb 34f
10:42pm 5 6 mph 1012.1mb 34f
10:36pm 2 6 mph 1012.1mb 33f
10:30pm 3 6 mph 1012mb 34f
10:24pm 2 3 mph 1012mb 33f
10:18pm 1 2 mph 1012mb 33f
10:12pm 3 6 mph 1011.9mb 33f
10:06pm  -  3 mph 1011.9mb 33f
10:00pm  -  1 mph 1011.9mb 33f
9:54pm 3 6 mph 1011.9mb 33f
9:48pm 2
mph
1011.8mb 33f
9:42pm 1 2 mph 1011.8mb 33f
9:36pm 1 2 mph 1011.8mb 33f
9:30pm 1 3 mph 1011.8mb 33f
9:24pm  -  2 mph 1011.8mb 33f
9:18pm 1 2 mph 1011.8mb 33f
9:12pm 1 3 mph 1011.9mb 33f
9:06pm 2 3 mph 1011.9mb 33f
9:00pm  -  3 mph 1011.8mb 32f
8:54pm 3
mph
1011.8mb 33f
8:48pm  -  2 mph 1011.8mb -
8:42pm 2
mph
1011.8mb 32f
8:36pm  -  1 mph 1011.8mb 33f
8:30pm  -  2 mph 1011.8mb 32f
8:24pm  -  2 mph 1011.8mb 33f
8:18pm 2 5 mph 1011.8mb -
8:12pm  -  3 mph 1011.6mb 33f
8:06pm 1 3 mph 1011.6mb 33f
8:00pm  -  2 mph 1011.7mb 33f
7:54pm 1 2 mph 1011.6mb 33f
7:48pm 1 3 mph 1011.6mb 33f
7:42pm 2 3 mph 1011.6mb 33f
7:36pm 1 3 mph 1011.6mb 33f
7:30pm 2 5 mph 1011.6mb 33f
7:24pm 2 5 mph 1011.6mb 34f
7:18pm 2 5 mph 1011.6mb 34f
7:12pm 1 3 mph 1011.6mb 33f
7:06pm 3 6 mph 1011.6mb 33f
7:00pm 2 5 mph 1011.5mb 33f
6:54pm 1 7 mph 1011.6mb 33f
6:48pm 2 6 mph 1011.5mb 33f
6:42pm 1 6 mph 1011.4mb 33f
6:36pm 5 6 mph 1011.5mb 33f
6:30pm 2 6 mph 1011.4mb 33f
6:24pm 2 7 mph 1011.3mb 33f
6:18pm 5 8 mph 1011.2mb 33f
6:12pm 3 6 mph 1011.2mb 33f
6:06pm 1 5 mph 1011.3mb 33f
6:00pm 3 11 mph 1011.2mb 33f
5:54pm 3 6 mph 1011.2mb 33f
5:48pm 3 10 mph 1011.2mb 34f
5:42pm 3 7 mph 1011mb 34f
5:36pm 7 11 mph 1010.9mb 34f
5:30pm 2 8 mph 1010.8mb 34f
5:24pm 6 8 mph 1010.9mb 34f
5:18pm 3 6 mph 1010.8mb -
5:12pm 3 6 mph 1010.8mb 34f
5:06pm 2 3 mph 1010.7mb 34f
5:00pm 2 5 mph 1010.7mb 34f
4:54pm 6 11 mph 1010.7mb 34f
4:48pm 3 6 mph 1010.6mb 34f
4:42pm 2 6 mph 1010.5mb 34f
4:36pm  -  5 mph 1010.5mb 34f
4:30pm 5 10 mph 1010.5mb 34f
4:24pm 5 10 mph 1010.4mb 34f
4:18pm 3 8 mph 1010.3mb 34f
4:12pm 3 9 mph 1010.2mb 34f
4:06pm 2 7 mph 1010.1mb 34f
4:00pm 5 7 mph 1010mb 34f
3:54pm 6 8 mph 1009.9mb 34f
3:48pm 3 8 mph 1009.8mb -
3:42pm 5 8 mph 1009.8mb 34f
3:36pm 2 3 mph 1009.7mb 35f
3:30pm 3 10 mph 1009.7mb 35f
3:24pm 6 10 mph 1009.8mb 35f
3:18pm 3 9 mph 1009.9mb 35f
3:12pm 6 11 mph 1009.9mb 35f
3:06pm 6 13 mph 1009.9mb 36f
3:00pm 3 11 mph 1009.9mb 36f
2:54pm 2 10 mph 1010.1mb 36f
2:48pm 7 11 mph 1009.9mb 36f
2:42pm 6 10 mph 1009.9mb 36f
2:36pm 2 11 mph 1009.9mb 37f
2:30pm 9 14 mph 1010mb 36f
2:24pm 3 8 mph 1010mb 36f
2:18pm 5 10 mph 1009.9mb -
2:12pm 3 11 mph 1010.1mb 36f
2:06pm 7 14 mph 1010.1mb 36f
2:00pm 9 14 mph 1010.1mb 36f
1:54pm 5 13 mph 1010.1mb 37f
1:48pm 5 9 mph 1009.9mb 37f
1:42pm 6 18 mph 1009.6mb 37f
1:36pm 9 18 mph 1009.5mb 37f
1:30pm 7 11 mph 1009.4mb 37f
1:24pm 7 14 mph 1009.5mb 37f
1:18pm 7 17 mph - -
1:12pm 8 15 mph 1009.2mb 37f
1:06pm 6 10 mph 1009.4mb 37f
1:00pm 6 13 mph 1009.4mb 37f
12:54pm 5 11 mph 1009.3mb 37f
12:48pm 6 16 mph 1009.4mb -
12:42pm 8 20 mph 1009.3mb 37f
12:36pm 6 13 mph 1009.4mb 37f
12:30pm 8 20 mph 1009.6mb 37f
12:24pm 6 13 mph 1009.6mb 37f
12:18pm 7 17 mph 1009.8mb 37f
12:12pm 6 15 mph 1009.9mb 37f
12:06pm 11 21 mph 1010mb 37f
12:00pm 8 17 mph 1010.1mb 37f
11:54am 8 23 mph 1010mb 36f
11:48am 5 16 mph - -
11:42am 7 21 mph 1010.2mb 36f
11:36am 7 16 mph 1010.3mb 36f
11:30am 8 18 mph 1010.5mb 36f
11:24am 5 9 mph 1010.5mb 36f
11:18am 7 14 mph 1010.9mb -
11:12am 3 11 mph 1011.1mb 36f
11:06am 9 16 mph 1011.1mb 35f
11:00am 8 14 mph 1011mb 35f
10:54am 9 15 mph 1011.2mb 35f
10:48am 7 14 mph 1011.5mb 35f
10:42am 5 14 mph 1011.5mb 35f
10:36am 5 10 mph 1011.8mb 34f
10:30am 5 11 mph 1011.9mb 34f
10:24am 5 9 mph 1011.9mb 35f
10:18am 2 6 mph - -
10:12am 5 8 mph 1012.1mb 34f
10:06am 7 11 mph 1012.1mb 34f
10:00am 5 8 mph 1012.1mb 34f
9:54am 3 8 mph 1012mb 34f
9:48am 3 9 mph 1012mb -
9:42am 6 11 mph 1011.7mb 33f
9:36am 7 13 mph 1011.7mb 33f
9:30am 3 8 mph 1011.9mb 33f
9:24am 6 14 mph 1011.8mb 33f
9:18am 7 11 mph 1011.8mb 32f
9:12am 5 9 mph 1011.9mb 32f
9:06am 7 11 mph 1011.9mb 32f
9:00am 6 8 mph 1012.1mb -
8:54am 5 9 mph 1012.3mb 31f
8:48am 3 15 mph 1012.4mb 31f
8:42am 5 8 mph 1012.3mb 31f
8:36am 6 9 mph 1012.4mb 31f
8:30am 5 8 mph 1012.6mb 30f
8:24am 1 3 mph 1012.8mb 30f
8:18am 3 7 mph 1012.9mb 30f
8:12am 3 6 mph 1012.9mb 30f
8:06am 5 7 mph 1012.9mb 30f
8:00am 3 10 mph 1012.8mb 29f
7:54am 5 10 mph 1012.7mb 29f
7:48am 6 9 mph 1012.6mb 29f
7:42am 5 8 mph 1012.8mb 29f
7:36am 5 10 mph 1012.8mb 29f
7:30am 5 7 mph 1012.8mb 29f
7:24am 5 6 mph 1012.8mb 28f
7:18am 3 9 mph 1012.9mb -
7:12am 5 7 mph 1012.9mb 28f
7:06am 3 6 mph 1012.9mb 28f
7:00am 3 7 mph 1012.9mb 28f
6:54am 3 6 mph 1012.6mb 28f
6:48am 5 6 mph 1012.4mb 28f
6:42am 2 6 mph 1012.5mb 27f
6:36am 5 7 mph 1012.5mb 28f
6:30am 2 5 mph 1012.5mb 27f
6:24am 2 5 mph 1012.6mb 27f
6:12am 2 6 mph 1012.7mb 27f
6:06am 3 5 mph 1012.7mb 27f
6:00am 2 3 mph 1012.7mb 27f
5:54am 1 3 mph 1012.7mb 27f
5:48am 2 5 mph 1012.6mb -
5:42am 3 5 mph 1012.5mb 27f
5:36am 2 3 mph 1012.6mb 27f
5:30am 3 5 mph 1012.5mb 27f
5:24am 2 5 mph 1012.5mb 27f
5:18am 2 5 mph 1012.5mb 27f
5:12am 3 5 mph 1012.3mb 27f
5:06am 3 6 mph 1012.3mb 27f
5:00am 3 6 mph 1012.1mb 27f
4:54am 6 7 mph 1012.2mb 27f
4:42am 3 6 mph 1012.3mb 27f
4:36am 3 5 mph 1012.4mb 28f
4:30am 3 5 mph 1012.3mb 28f
4:24am 2 5 mph 1012.3mb 28f
4:18am 2 3 mph 1012.5mb -
4:12am 2 3 mph 1012.5mb 28f
4:06am 2 5 mph 1012.5mb 28f
4:00am 2 6 mph 1012.5mb 28f
3:54am 3 5 mph 1012.4mb 27f
3:48am 2 7 mph 1012.2mb 27f
3:42am 2 6 mph 1012.2mb 27f
3:36am 2 7 mph 1012.1mb 27f
3:30am 3 9 mph 1012.1mb 28f
3:24am 3 6 mph 1012.1mb 28f
3:18am 2 7 mph 1012mb -
3:12am 3 7 mph 1012mb 28f
3:06am 3 6 mph 1012.2mb 29f
3:00am 1 5 mph 1012.2mb 29f
2:54am 2 5 mph 1012.2mb 29f
2:48am 2 5 mph 1012.3mb 30f
2:42am 2 5 mph 1012.3mb 30f
2:36am 2 3 mph 1012.3mb 30f
2:30am 1 3 mph 1012.3mb 30f
2:24am 2 3 mph 1012.4mb 30f
2:18am 2 5 mph 1012.5mb 30f
2:12am 1 3 mph 1012.5mb 30f
2:06am 1 3 mph 1012.5mb 31f
2:00am 1 2 mph 1012.4mb 31f
1:54am  -  2 mph 1012.5mb 31f
1:48am 1 2 mph - -
1:42am 2 5 mph 1012.5mb 31f
1:36am 3 5 mph 1012.3mb 31f
1:30am 2 5 mph 1012.2mb 31f
1:24am 2 6 mph 1012mb 31f
1:18am 3 6 mph 1012mb 31f
1:12am 3 7 mph 1012.1mb 31f
1:06am 3 8 mph 1012.1mb 31f
1:00am 3 6 mph 1012mb 31f
12:54am 2 6 mph 1011.9mb 31f
12:42am 3 7 mph 1011.8mb 32f
12:36am 2 5 mph 1011.9mb 32f
12:30am 2 7 mph 1011.9mb 32f
12:24am 2 6 mph 1011.8mb 32f
12:18am 2 6 mph - -
12:12am 3 6 mph 1011.7mb 32f
Tue 01/17 11:54pm 2
mph
1012mb 32f
11:48pm 1 2 mph 1011.9mb -
11:42pm 1 2 mph 1011.9mb 32f
11:36pm 2
mph
1011.8mb 32f
11:30pm 1 2 mph 1011.9mb 32f
11:24pm 1 2 mph 1011.9mb 32f
11:12pm 2 3 mph 1011.9mb 33f
11:06pm 2 3 mph 1011.8mb 33f
11:00pm 2
mph
1011.8mb 33f
10:54pm 1 2 mph 1011.8mb 33f
10:48pm 1 2 mph 1011.8mb 33f
10:42pm 1 3 mph 1011.8mb 33f
10:36pm 2 5 mph 1011.8mb 33f
10:30pm 3 5 mph 1011.7mb 33f
10:24pm 3
mph
1011.7mb 33f
10:18pm 2
mph
1011.7mb 33f
10:12pm 2 3 mph 1011.7mb 33f
10:06pm 2 3 mph 1011.6mb 33f
10:00pm 2 3 mph 1011.5mb 33f
9:54pm 3 5 mph 1011.5mb 33f
9:48pm 2 3 mph 1011.6mb 33f
9:42pm 3
mph
1011.6mb 33f
9:36pm  -  2 mph 1011.6mb 33f
9:30pm 2 3 mph 1011.6mb 33f
9:24pm 3
mph
1011.6mb 33f
9:18pm 3
mph
1011.6mb 34f
9:12pm 2 3 mph 1011.7mb 34f
9:06pm 2 3 mph 1011.8mb 34f
9:00pm 1 2 mph 1011.9mb 33f
8:54pm  -  1 mph 1012mb 33f
8:48pm  -  1 mph 1012.1mb -
8:42pm 1
mph
1012.1mb 33f
8:36pm 1 2 mph 1012mb 33f
8:30pm  -  1 mph 1012mb 33f
8:24pm 1 2 mph 1012mb 33f
8:18pm 2
mph
1012mb 33f
8:12pm 1 2 mph 1012.1mb 33f
8:06pm 1 2 mph 1012.1mb 33f
8:00pm 2 3 mph 1012.1mb 33f
7:54pm 2 3 mph 1012.2mb 33f
7:48pm 2
mph
1012mb 33f
7:42pm 2 3 mph 1011.9mb 33f
7:36pm 3
mph
1012mb 33f
7:30pm 1 2 mph 1011.8mb 33f
7:24pm  -  2 mph 1011.8mb 33f
7:18pm 1 2 mph 1011.8mb 33f
7:12pm 2
mph
1011.8mb 33f
7:06pm 1 2 mph 1011.9mb 33f
7:00pm 1 2 mph 1011.9mb 33f
6:54pm 1 2 mph 1011.9mb 33f
6:48pm 1 2 mph 1011.9mb 33f
6:42pm 2 3 mph 1012mb 33f
6:36pm 2
mph
1011.9mb 33f
6:30pm 1 2 mph 1011.9mb 33f
6:24pm 1 2 mph 1011.9mb 33f
6:18pm 2 3 mph 1012mb 33f
6:12pm 3 5 mph 1012.1mb 33f
6:06pm 2 3 mph 1012.2mb 33f
6:00pm 3 5 mph 1012.2mb 33f
5:54pm 3 6 mph 1012.3mb 33f
5:48pm 5 6 mph 1012.2mb 33f
5:42pm 5 6 mph 1012.2mb 33f
5:36pm 3 6 mph 1012.2mb 33f
5:30pm 3 5 mph 1012.4mb 33f
5:24pm  -  5 mph 1012.3mb 33f
5:18pm 2 6 mph 1012.2mb -
5:12pm 6 7 mph 1012.4mb 33f
5:06pm 5 6 mph 1012.4mb 33f
5:00pm 2 6 mph 1012.2mb 33f
4:54pm 5 6 mph 1012.1mb 33f
4:48pm 5 6 mph 1012.1mb 33f
4:42pm 3 6 mph 1012mb 33f
4:36pm 3 5 mph 1011.9mb 33f
4:30pm 2 3 mph 1011.9mb 33f
4:24pm 2 5 mph 1011.9mb 33f
4:18pm 2
mph
1011.9mb 33f
4:12pm 1 2 mph 1011.7mb 33f
4:06pm 2
mph
1011.6mb 33f
4:00pm  -  2 mph 1011.7mb 33f
3:54pm 1 2 mph 1011.7mb 33f
3:48pm  -  2 mph 1011.8mb -
3:42pm 2 5 mph 1011.8mb 33f
3:36pm 5 6 mph 1011.8mb 33f
3:30pm 5 6 mph 1011.9mb 33f
3:24pm 3 5 mph 1011.8mb 33f
3:18pm 2 5 mph 1011.8mb 33f
3:12pm 5
mph
1011.9mb 33f
3:06pm  -  1 mph 1011.9mb 33f
3:00pm  -  1 mph 1011.9mb 33f
2:54pm  -  mph 1011.9mb 33f
2:48pm  -  mph 1011.8mb 33f
2:42pm  -  2 mph 1011.7mb 34f
2:36pm 2 3 mph 1011.6mb 33f
2:30pm 2 3 mph 1011.5mb 33f
2:24pm 3 5 mph 1011.5mb 33f
2:18pm 3 5 mph 1011.5mb -
2:12pm 3 5 mph 1011.5mb 33f
2:06pm 5
mph
1011.6mb 33f
2:00pm 5 6 mph 1011.5mb 33f
1:54pm 6 7 mph 1011.4mb 33f
1:48pm 6 8 mph 1011.3mb 33f
1:42pm 6 7 mph 1011.4mb 33f
1:36pm 6 7 mph 1011.4mb 33f
1:30pm 6 7 mph 1011.5mb 33f
1:24pm 6 8 mph 1011.6mb 33f
1:18pm 7 8 mph 1011.6mb 33f
1:12pm 7 8 mph 1011.6mb 33f
1:06pm 8 10 mph 1011.6mb 33f
1:00pm 8 11 mph 1011.5mb 33f
12:54pm 9 10 mph 1011.4mb 33f
12:48pm 9 11 mph 1011.4mb -
12:42pm 9 11 mph 1011.4mb 33f
12:36pm 10 11 mph 1011.5mb 33f
12:30pm 9 10 mph 1011.6mb 33f
12:24pm 10 11 mph 1011.7mb 32f
12:18pm 10 13 mph 1011.7mb 32f
12:12pm 10 11 mph 1011.7mb 32f
12:06pm 10 11 mph 1011.9mb 32f
12:00pm 9 10 mph 1012.1mb 32f
11:54am 9 10 mph 1012.3mb 32f
11:48am 9 10 mph 1012.3mb -
11:42am 9 10 mph 1012.4mb 32f
11:36am 9 10 mph 1012.6mb 32f
11:30am 8 10 mph 1012.8mb 32f
11:24am 10 11 mph 1012.8mb 32f
11:18am 10 13 mph 1012.6mb 32f
11:12am 10 11 mph 1012.7mb 32f
11:06am 9 11 mph 1012.9mb 32f
11:00am 10 11 mph 1013mb 32f
10:54am 9 10 mph 1013.1mb 31f
10:48am 9 11 mph 1013.2mb 31f
10:42am 9 11 mph 1013.4mb 31f
10:36am 9 11 mph 1013.5mb 31f
10:30am 9 11 mph 1013.7mb 31f
10:24am 11 15 mph 1013.7mb 31f
10:18am 10 13 mph 1013.7mb -
10:12am 10 13 mph 1013.7mb 31f
10:06am 13 15 mph 1013.7mb 31f
10:00am 13 16 mph 1013.8mb 31f
9:54am 14 15 mph 1014mb 31f
9:48am 13 14 mph 1014.2mb 31f
9:42am 13 14 mph 1014.2mb 30f
9:36am 11 14 mph 1014.2mb 30f
9:30am 13 14 mph 1014.3mb 30f
9:24am 14 15 mph 1014.2mb 30f
9:18am 13 16 mph 1014.2mb 30f
9:12am 14 16 mph 1014.2mb 30f
9:06am 15 16 mph 1014.1mb 30f
9:00am 14 17 mph 1014.2mb 30f
8:54am 16 17 mph 1014.2mb 30f
8:48am 15 17 mph 1014.3mb 30f
8:42am 15 17 mph 1014.4mb 30f
8:36am 15 17 mph 1014.3mb 30f
8:30am 14 17 mph 1014.3mb 29f
8:24am 15 17 mph 1014.3mb 29f
8:18am 10 15 mph 1014.4mb 29f
8:12am 11 15 mph 1014.4mb 29f
8:06am 10 15 mph 1014.5mb 29f
8:00am 11 16 mph 1014.5mb 29f
7:54am 11 17 mph 1014.5mb 29f
7:48am 13 16 mph 1014.6mb 29f
7:42am 11 15 mph 1014.6mb 29f
7:36am 11 15 mph 1014.7mb 29f
7:30am 11 15 mph 1014.7mb 29f
7:24am 10 15 mph 1014.8mb 29f
7:18am 11 15 mph 1014.8mb -
7:12am 10 14 mph 1014.8mb 29f
7:06am 10 13 mph 1014.8mb 29f
7:00am 11 15 mph 1014.8mb 29f
6:54am 10 14 mph 1014.9mb 29f
6:48am 9 13 mph 1015mb -
6:42am 11 14 mph 1015.1mb 28f
6:36am 10 13 mph 1015.1mb 28f
6:30am 9 13 mph 1015.2mb 28f
6:24am 9 13 mph 1015.2mb 28f
6:18am 9 11 mph 1015.2mb 28f
6:12am 9 11 mph 1015.3mb 28f
6:06am 8 13 mph 1015.3mb 28f
6:00am 9 13 mph 1015.4mb 28f
5:54am 8 13 mph 1015.3mb 28f
5:48am 9 14 mph 1015.3mb 28f
5:42am 10 15 mph 1015.2mb 28f
5:36am 9 15 mph 1015.3mb 28f
5:30am 11 14 mph 1015.4mb 28f
5:24am 10 14 mph 1015.4mb 28f
5:18am 13 14 mph 1015.5mb -
5:12am 11 15 mph 1015.6mb 28f
5:06am 11 14 mph 1015.6mb 28f
5:00am 10 14 mph 1015.7mb 28f
4:54am 9 13 mph 1015.7mb 28f
4:48am 10 13 mph 1015.8mb 28f
4:42am 13 14 mph 1015.8mb 28f
4:36am 11 13 mph 1015.9mb 28f
4:30am 10 13 mph 1016mb 28f
4:24am 10 13 mph 1016.1mb 28f
4:18am 11 14 mph - -
4:12am 11 15 mph 1016.3mb 28f
4:06am 13 15 mph 1016.3mb 27f
4:00am 11 14 mph 1016.4mb 27f
3:54am 13 15 mph 1016.4mb 27f
3:48am 13 15 mph 1016.5mb -
3:42am 11 15 mph 1016.5mb 27f
3:36am 13 15 mph 1016.6mb 27f
3:30am 11 14 mph 1016.8mb 27f
3:24am 13 14 mph 1016.9mb 27f
3:18am 11 14 mph 1017.1mb 27f
3:12am 10 14 mph 1017.3mb 27f
3:06am 10 13 mph 1017.5mb 27f
3:00am 9 11 mph 1017.6mb 27f
2:54am 10 13 mph 1017.7mb 27f
2:48am 10 11 mph 1017.8mb 27f
2:42am 9 11 mph 1017.9mb 27f
2:36am 9 13 mph 1017.8mb 26f
2:30am 7 9 mph 1017.9mb 26f
2:24am 6 10 mph 1017.9mb 26f
2:18am 10 11 mph 1018mb -
2:12am 10 11 mph 1018mb 26f
2:06am 9 11 mph 1018mb 27f
2:00am 10 11 mph 1017.9mb 26f
1:54am 8 11 mph 1017.9mb 26f
1:48am 9 10 mph 1017.9mb 26f
1:42am 10 11 mph 1017.9mb 26f
1:36am 9 10 mph 1017.8mb 26f
1:30am 9 10 mph 1017.8mb 26f
1:24am 9 11 mph 1017.9mb 26f
1:18am 10 11 mph 1017.9mb 26f
1:12am 9 10 mph 1018mb 26f
1:06am 9
mph
1017.9mb 26f
1:00am 8 10 mph 1017.9mb 26f
12:54am 9 10 mph 1018mb 26f
12:42am 9 11 mph 1017.9mb -
12:36am 9 10 mph 1018mb -
12:30am 7 9 mph 1018.1mb 26f
12:24am 8 10 mph 1018.1mb 26f
12:12am 7 8 mph 1018.2mb 26f
12:06am 7 9 mph 1018.3mb 26f
12:00am 8 9 mph 1018.4mb 26f
Mon 01/16 11:54pm 8 10 mph 1018.5mb 26f
11:48pm 8 10 mph - -
11:42pm 6 9 mph - -
11:36pm 5 9 mph - -
11:30pm 5 7 mph 1018.8mb 26f
11:24pm 6 9 mph 1019.1mb 26f
11:18pm 7 9 mph 1019.1mb -
11:12pm 7 8 mph 1019.1mb 26f
11:06pm 5 6 mph 1019.3mb 25f
11:00pm 6 7 mph 1019.4mb 25f
10:54pm 5 7 mph 1019.5mb 25f
10:48pm 3 7 mph 1019.5mb 25f
10:42pm 5 6 mph 1019.7mb 25f
10:36pm 5 6 mph 1019.7mb 25f
10:30pm 5 7 mph 1019.8mb 25f
10:24pm 5 7 mph 1019.7mb 25f
10:18pm 5 7 mph 1019.8mb 25f
10:12pm 5 6 mph 1019.7mb 26f
10:06pm 5 6 mph 1019.7mb 26f
10:00pm 5 7 mph 1019.8mb 25f
9:54pm 5 6 mph 1019.8mb 25f
9:48pm 5 9 mph - -
9:42pm 8 9 mph 1019.7mb 27f
9:36pm 9
mph
1019.7mb 27f
9:30pm 9 10 mph 1019.7mb 27f
9:24pm 7 8 mph 1019.9mb 28f
9:18pm 8
mph
1020.1mb -